Regional Weather Roundup
Issued by NWS

Home | Current Version | Previous Version | Text Only | Print | Product List | Glossary Off
Versions: 1 2 3 4 5 6 7 8 9 10 11 12 13 14 15 16 17 18 19 20 21 22 23 24 25 26 27

000
ASUS45 KSLC 210510
RWRUT

UTAH REGIONAL WEATHER ROUNDUP
NATIONAL WEATHER SERVICE SALT LAKE CITY UT
1100 PM MDT FRI APR 20 2018

UTZ001>011-023>025-210600-

NORTHERN UTAH

CITY           SKY/WX    TMP DP  RH WIND       PRES   REMARKS
BRIGHAM CITY   CLEAR     53  33  48 SW3       30.07R
HILL AFB       CLEAR     51  33  50 CALM      30.08R
LOGAN          CLEAR     52  32  46 N13       30.07R
OGDEN          CLEAR     52  32  46 W7        30.06R
SALT LAKE CITY PTCLDY    53  38  56 CALM      30.06S
TOOELE VALLEY  CLEAR     43  36  75 S8        30.10R
WENDOVER       CLEAR     59  18  20 W7G18     30.12R
HEBER CITY     CLOUDY    46  32  57 SE7       30.07R
WEST JORDAN    MOCLDY    52  35  52 W5        30.09R

$$

UTZ011>015-024>027-210600-

CENTRAL/NORTHEAST UTAH

CITY           SKY/WX    TMP DP  RH WIND       PRES   REMARKS
PROVO AIRPORT  CLOUDY    50  44  80 W9        30.10R
MOAB/CANYONLAN CLOUDY    48  38  68 W13       30.05R
DELTA          CLEAR     45  36  70 SE10      30.13S
PRICE          PTCLDY    38  38 100 NE5       30.10R WCI  34
ROOSEVELT      CLOUDY    41  37  87 CALM      30.12S
VERNAL         CLOUDY    41  39  93 S3        30.09S

$$

UTZ013>016-019>022-027-210600-

SOUTHERN UTAH

CITY           SKY/WX    TMP DP  RH WIND       PRES   REMARKS
BRYCE CANYON   CLEAR     33  26  75 NW5       30.18S WCI  29
CEDAR CITY     CLEAR     37  34  89 NE6       30.15R WCI  32
MILFORD        CLEAR     42  41  96 S5        30.14R
ST GEORGE      MOCLDY    57  34  41 CALM      30.09R
HANKSVILLE     CLOUDY    52  34  50 NE3       30.11S
BLANDING         N/A     43  27  52 W8        30.15S

$$

REGIONAL REPORTS     COLORADO/ARIZONA

CITY           SKY/WX    TMP DP  RH WIND       PRES   REMARKS
CRAIG, CO      CLOUDY    39  35  86 W6        30.02R WCI  35
GRAND JUNCTION CLOUDY    42  39  89 SE8       30.06S
RIFLE, CO      LGT RAIN  36  34  92 CALM      30.07S
MONTROSE, CO   LGT RAIN  38  34  85 S5        30.10S WCI  34
CORTEZ, CO     MOCLDY    33  26  75 E3        30.09R
COLORADO CITY    N/A     41  34  75 E9        30.16S
PAGE, AZ       CLEAR     49  39  68 SW6       30.10R
GRAND CANYON   CLEAR     28  27  96 CALM      30.18S
KINGMAN, AZ    CLEAR     52  24  33 SE5       30.10R
FLAGSTAFF, AZ  CLEAR     29  25  85 CALM      30.18R

$$

REGIONAL REPORTS    NEVADA/IDAHO/WYOMING

CITY           SKY/WX    TMP DP  RH WIND       PRES   REMARKS
LAS VEGAS, NV  CLEAR     71  31  22 E3        30.02R
ELY, NY        CLEAR     45  14  28 NW6       30.22R
ELKO, NV       CLEAR     46  25  43 VRB5      30.21R
POCATELLO, ID  CLEAR     52  30  43 SW13      30.12R
BURLEY, ID     CLEAR     50  23  34 SW12      30.11R
FORT BRIDGER,  MOCLDY    40  37  91 S8        30.14R WCI  34
EVANSTON, WY   PTCLDY    42  25  50 N10       30.12R
ROCK SPRINGS,  CLOUDY    37  31  78 CALM      30.12R
KEMMERER, WY   PTCLDY    37  32  81 CALM      30.13S

$$




USA.gov is the U.S. government's official web portal to all federal, state and local government web resources and services.